OBJECT Z, 42848

Orbit data source: Space-Track

You're viewing an Uncataloged Satellite

Recently launched and/or uncataloged satellites may have evolving metadata. Metadata may include but not limited to: Owner, Maufacturer, Bus, Motor, and Mission.

OBJECT Z, 42848 is a satellite in SSO that was launched on Fri, 14 Jul 2017 UTC via a SOYUZ-2-1A launch vehicle from the Tyuratam Missile And Space Complex (TTMTR). Unknown objects in Earth's orbit typically refer to objects detected orbiting the Earth but have not yet been identified or cataloged. These objects could be anything from previously untracked satellites, spent rocket stages, debris from satellite collisions, or even natural meteoroids temporarily captured by Earth's gravity.

Loading next visibility...
Identifier
42848, 2017-042Z
Orbit
SSO
Country
Flag of TBDTBD
Related business
None
Manufacturer
Unknown
Mission
Non-operational Commercial Meteo Radio Occ.
Bus & Motor
Unknown
Mass
Unknown
Launch date (UTC)
2017-07-14 (9 years ago)
Launch vehicle
SOYUZ-2-1A
Launch site
Tyuratam Missile And Space Complex (TTMTR)
Object type
Unknown
Shape & HBR
Box + 2 Pan, 0.3 m
Radar Cross Section
0.079 m², Medium (>0.1 m² and < 1m²)

Expand to show TLE details & history
Last TLE update: 12 hours ago

TLE from 12 hours ago
0 OBJECT Z
1 42848U 17042Z   26034.41702429  .00006122  00000-0  41922-3 0  9996
2 42848  97.3759 202.9078 0006011 150.3543 209.8027 15.06404913467092
Epoch: 2026-02-03T10:00Z
TLE epoch observation values (Epoch: 2026-02-03T10:00:30.898Z)
Latitude
0.00001°
Longitude
-80.8192°
Altitude
553.883 km
Speed
7.583 km/s
True Right ascension
13h 31m 37s
True Declination
0° 00' 00"
Sunlit
Object was in partial shadow at epoch
Visualization orbit readout
Latitude
Unknown
Longitude
Unknown
Altitude
Unknown
Speed
Unknown
Apparent Right ascension
Unknown
Apparent Declination
Unknown
Sunlit
N/A
Visualization observer readout
Local Sidereal Time
00:18:40
Azimuth
Unknown
Elevation
Unknown
Doppler factor
Unknown
Orbital elements
Apogee altitude
548.34 km
Perigee altitude
540.018 km
Semi-major axis
6,922.316 km
Eccentricity
0.0006
Inclination
97.3759°
RAAN
202.9078°
Arg. of periapsis
150.3543°
True anomaly
209.76849°
Mean anomaly
209.8027°
Eccentric anomaly
209.78559°
Mean motion
3.76848 °/min
Orbital period
95.53 mins
BSTAR
0.00041922
Loading maneuver chart data...
Computing Atmospheric mass density...
Loading historical data...
Loading historical data...
Loading historical data...
Loading historical data...
Loading historical data...
Loading historical data...
Loading historical data...

Documentation

Showing up to 5 results
|